Meteo Giornale » Osservazioni meteo Francia » Parigi-Orly

ore: 16:30 - Osservazioni Meteo Parigi-Orly
Lat. 48° 44' N Lon. 2° 24' E Alt. 89 metri s.l.m.

sereno Europe/Paris

24 °C

Sereno

Temp. 24 Ore

10 °C

24 °C

Nord/Nord-Est

11.1 Km/h

Dew point 7 °C

Umidità 33 %

Visibilità  10 Km

Il sole sorge alle ore 06:49

Il sole tramonta alle ore 20:49

Data e Ora Cielo e Fenomeni T °C DP °C Um. % Pres. hPa Vis. km Vento km/h
Oggi h: 16:30 sereno Sereno 24 7 33 1024 10 N/NE 11.1
Oggi h: 16:00 sereno Sereno 24 7 33 1023 10 N 5.5
Oggi h: 15:30 sereno Sereno 24 7 33 1024 10 E 7.4
Oggi h: 15:00 sereno Sereno 24 7 33 1024 10 NE 11.1
Oggi h: 14:30 sereno Sereno 24 9 38 1024 10 N 5.5
Oggi h: 14:00 sereno Sereno 23 8 38 1024 10 E/NE 7.4
Oggi h: 13:30 sereno Sereno 23 9 40 1024 10 NE 9.3
Oggi h: 13:00 sereno Sereno 22 8 40 1024 10 E/NE 11.1
Oggi h: 12:30 sereno Sereno 21 9 46 1024 10 E/NE 13
Oggi h: 12:00 sereno Sereno 20 7 42 1024 10 NE 11.1
Oggi h: 11:30 sereno Sereno 19 8 48 1024 10 NE 9.3
Oggi h: 11:00 sereno Sereno 18 8 51 1024 10 N 5.5
Oggi h: 10:30 sereno Sereno 17 8 55 1024 10 E 9.3
Oggi h: 10:00 sereno Sereno 16 8 58 1024 10 E/NE 9.3
Oggi h: 08:30 sereno Sereno 14 7 62 1023 10 NE 11.1
Oggi h: 08:00 sereno Sereno 13 7 66 1023 10 N/NE 9.3
Oggi h: 07:30 sereno Sereno 12 6 66 1023 10 N/NE 9.3
Oggi h: 07:00 sereno Sereno 11 6 71 1022 10 N/NE 7.4
Oggi h: 06:30 sereno Sereno 10 6 76 1022 10 N/NE 7.4
Oggi h: 06:00 sereno Sereno 10 5 71 1022 10 N 5.5
Oggi h: 05:30 sereno Sereno 10 6 76 1022 10 N 5.5
Oggi h: 05:00 sereno Sereno 11 5 66 1022 10 N 9.3
Oggi h: 04:30 sereno Sereno 12 6 66 1021 10 N 11.1
Oggi h: 04:00 sereno Sereno 12 6 66 1021 10 N 9.3
Oggi h: 03:30 sereno Sereno 13 6 62 1021 10 N 7.4
Oggi h: 03:00 sereno Sereno 14 5 54 1021 10 N/NE 7.4
Oggi h: 02:30 sereno Sereno 14 6 58 1021 10 NE 9.3
Oggi h: 01:30 sereno Sereno 15 6 54 1021 10 NE 13
Oggi h: 01:00 sereno Sereno 15 6 54 1021 10 E/NE 11.1
Oggi h: 00:30 sereno Sereno 15 6 54 1021 10 NE 13
Oggi h: 00:00 sereno Sereno 15 6 54 1021 10 NE 13
Ieri h: 23:30 sereno Sereno 15 6 54 1021 10 N/NE 14.8
Ieri h: 23:00 sereno Sereno 16 6 51 1020 10 NE 13
Ieri h: 22:30 sereno Sereno 17 6 48 1020 10 NE 14.8
Ieri h: 22:00 sereno Sereno 17 6 48 1020 10 NE 13
Ieri h: 21:30 sereno Sereno 18 6 45 1020 10 E/NE 13
Ieri h: 21:00 sereno Sereno 20 6 39 1020 10 E/NE 13
Ieri h: 20:30 sereno Sereno 20 6 39 1019 10 E 14.8
Ieri h: 20:00 sereno Sereno 21 7 40 1019 10 E 14.8
Ieri h: 19:30 sereno Sereno 22 8 40 1019 10 E 22.2
Ieri h: 19:00 sereno Sereno 22 8 40 1019 10 E 18.5
Ieri h: 18:30 sereno Sereno 22 9 43 1019 10 E 18.5
Ieri h: 18:00 sereno Sereno 22 8 40 1018 10 E/SE 16.7
Ieri h: 17:00 sereno Sereno 22 9 43 1018 10 E 20.3